Location: Newark
(11.4947°N, 0.1467°E)
Time: 07:20:43
(UTC+00:00)

Envisat - Pass Details

Date: 18 November 2019
Orbit: 764 x 766 km, 98.1° (Epoch: 14 December)

Event Time Altitude Azimuth Distance (km) Brightness Sun altitude
Rises 19:23:28 0° 204° (SSW) 3,223 6.8 -26.9°
Reaches altitude 10° 19:26:45 10° 226° (SW) 2,297 6.2 -27.7°
Maximum altitude 19:29:35 15° 261° (W) 1,966 5.9 -28.3°
Drops below altitude 10° 19:32:25 10° 295° (WNW) 2,297 6.0 -29.0°
Sets 19:35:43 0° 318° (NW) 3,222 6.6 -29.8°
